{"data":{"norad_id":59169,"epoch":"2026-09-19T21:23:40.795296Z","epoch_age_seconds":211402,"freshness":"STALE","line1":"1 59169U 24044T   26262.89144439 -.00001028  00000+0 -27839-4 0  9999","line2":"2 59169  43.0044  90.4969 0001131 275.0549  85.0174 15.27573101143265","mean_motion":15.27573101,"eccentricity":0.0001131,"inclination_deg":43.0044,"raan_deg":90.4969,"arg_perigee_deg":275.0549,"mean_anomaly_deg":85.0174,"bstar":-2.7839e-5,"rev_number":14326,"period_min":94.267174451902,"perigee_km":482.2937517214,"apogee_km":483.8457566892,"semimajor_km":6861.2067542053,"source":"CELESTRAK","updated_at":"2026-09-21T09:00:34.059893Z"}}